This is the latest recevied weather packets stored in our database for station/object AF5AA. If no packets are shown the sender has not sent any weather packets the latest 10 day(s).
| Time | Temp. | Humidity | Pressure | Rain* | Wind** | Luminosity | Snow |
|---|---|---|---|---|---|---|---|
| 1777777050 | 13.33° C | 87% | 1019.6 hPa | 0 mm | - | 0 W/m² | - |
| 1777776748 | 13.33° C | 86% | 1019.6 hPa | 0 mm | - | 0 W/m² | - |
| 1777776445 | 13.89° C | 86% | 1019.6 hPa | 0 mm | - | 0 W/m² | - |
| 1777776142 | 13.89° C | 85% | 1019.4 hPa | 0 mm | - | 0 W/m² | - |
| 1777775839 | 13.89° C | 84% | 1019.4 hPa | 0 mm | - | 0 W/m² | - |
| 1777775535 | 13.89° C | 86% | 1019.2 hPa | 0 mm | - | 0 W/m² | - |
| 1777775231 | 13.89° C | 84% | 1019.3 hPa | 0 mm | - | 0 W/m² | - |
| 1777774926 | 13.89° C | 85% | 1019.2 hPa | 0 mm | - | 0 W/m² | - |
| 1777774623 | 14.44° C | 84% | 1019.2 hPa | 0 mm | - | 0 W/m² | - |
| 1777774319 | 14.44° C | 84% | 1019.4 hPa | 0 mm | - | 0 W/m² | - |
| 1777774017 | 15° C | 83% | 1019.1 hPa | 0 mm | - | 0 W/m² | - |
| 1777773714 | 15° C | 81% | 1019 hPa | 0 mm | - | 0 W/m² | - |
| 1777773411 | 15.56° C | 79% | 1019.1 hPa | 0 mm | - | 0 W/m² | - |
| 1777773108 | 15.56° C | 77% | 1018.8 hPa | 0 mm | - | 0 W/m² | - |
| 1777772803 | 15.56° C | 74% | 1018.9 hPa | 0 mm | - | 0 W/m² | - |
| 1777772502 | 15.56° C | 73% | 1018.8 hPa | 0 mm | - | 0 W/m² | - |
| 1777772198 | 16.11° C | 72% | 1018.9 hPa | 0 mm | - | 0 W/m² | - |
| 1777771897 | 16.11° C | 71% | 1018.8 hPa | 0 mm | - | 0 W/m² | - |
| 1777771593 | 16.67° C | 71% | 1018.8 hPa | 1.27 mm | - | 0 W/m² | - |
| 1777771290 | 16.67° C | 73% | 1018.7 hPa | 1.27 mm | - | 0 W/m² | - |
| 1777770987 | 17.22° C | 74% | 1018.5 hPa | 0 mm | - | 0 W/m² | - |
| 1777770684 | 17.22° C | 68% | 1018.6 hPa | 0 mm | - | 0 W/m² | - |
| 1777770380 | 17.78° C | 69% | 1018.5 hPa | 0 mm | - | 1 W/m² | - |
| 1777770078 | 17.78° C | 74% | 1018.4 hPa | 0 mm | - | 1 W/m² | - |
| 1777769774 | 18.33° C | 72% | 1018.5 hPa | 0 mm | - | 2 W/m² | - |
* Rain latest hour (hover to see other rain measurements)
** Current wind speed in m/s (hover to see current wind gust speed)